QZS-4 (MICHIBIKI-4)

Last updated on Tue Sep 22 2026 00:03:14 GMT+0000 (Coordinated Universal Time)

1 42965U 17062A 26264.53282560 -.00000306 00000+0 00000+0 0 9991 2 42965 40.0450 342.2563 0750211 269.8010 80.7760 1.00272650 32767
UTC large
Height (km)
Speed (km/s)
/
Latitude / Longitude
Inclination (degrees)
Orbital Period (minutes)
Azimuth
Elevation
Range (km)
Doppler Factor

Next 0 passes for location: London (51.5072 / 0.1276)

No passes found over London.
QZS-4 (MICHIBIKI-4)